Погода в Оране

Алжир     35°41′53″N   0°38′40″E
темп.,
°C
ветер,
м/с
пор.,
м/с
влажн.,
%
обл.,
%
осадки,
мм/ч
давл.,
гПа
погр.,
м
20 мая, пт
пт2001:00+20ссв4583100 0.0 1016101
04:00+20ссв348486 0.0 101677
07:00+21зсз128195 0.0 101853
10:00+23ссз227172 0.0 1019150
13:00+24с327195 0.0 1019192
16:00+23ссв347140 0.0 1017154
19:00+24всв226534 0.0 101786
22:00+23в22666 0.0 101740
21 мая, сб
сб2101:00+23всв226039 0.0 101730
04:00+21св347484 0.0 101754
07:00+21св357591 0.0 101767
10:00+24св346459 0.0 1018166
13:00+24ссв566422 0.0 1017282
16:00+24ссв576620 0.0 1015231
19:00+23св45677 0.0 1015140
22:00+22св237320 0.0 101658
22 мая, вс
вс2201:00+21з567442 0.0 1015100
04:00+21зюз468096 0.0 1014104
07:00+20зюз448138 0.0 1014106
10:00+24зсз22655 0.0 1014167
13:00+24зсз456918 0.0 1013364
16:00+23зсз5671100 0.0 1011261
19:00+22з5672100 0.0 1011186
22:00+22юз4667100 0.0 1012129
23 мая, пн
пн2301:00+22юз5762100 0.0 1011121
04:00+23юз4659100 0.0 1010105
07:00+23юз57557 0.0 1010154
10:00+25зюз67467 0.0 1011263
13:00+25з79500 0.0 1010389
16:00+24з57605 0.0 1009347
19:00+24зюз44565 0.0 1008227
22:00+24юз345029 0.0 101069
24 мая, вт
вт2401:00+22зюз46605 0.0 100993
04:00+22юз46584 0.0 1008105
07:00+21юз58605 0.0 1009163
10:00+24зюз79495 0.0 1010350
13:00+24зюз810544 0.0 1010456
16:00+23зюз812560 0.0 1008450
19:00+23юз812495 0.0 1008350
22:00+22юз8124954 0.0 1011312